NOAA 16 DEB, 41531

Orbit data source: Space-Track

NOAA 16 DEB, 41531 is space debris in SSO originally from a launch on Thu, 21 Sep 2000 UTC launched from the Air Force Western Test Range (AFWTR). Debris objects in space refer to the collection of defunct objects orbiting the Earth. Examples of debris include non-operational satellites, rocket bodies, and fragments generated from explosions, collisions, or faulty payload assembly.

Loading next visibility...
Identifier
41531, 2000-055NF
Orbit
SSO
Country
Flag of USUS
Related business
Manufacturer
Unknown
Mission
Spacecraft
Bus & Motor
Unknown
Mass
Unknown
Launch date (UTC)
2000-09-21 (26 years ago)
Launch vehicle
Unknown
Launch site
Air Force Western Test Range (AFWTR)
Object type
Payload
Rocket body
Debris
Shape & HBR
Unknown shape, 0.1 m
Radar Cross Section
Small (<0.1 m²)

Expand to show TLE details & history
Last TLE update: 3 days ago

TLE from 3 days ago
0 NOAA 16 DEB
1 41531U 00055NF  26170.33890250  .00001845  00000-0  91123-3 0  9997
2 41531  98.6312 193.8895 0028406 207.0970 152.8724 14.18396335523487
Epoch: 2026-06-19T08:08Z
TLE epoch observation values (Epoch: 2026-06-19T08:08:01.175Z)
Latitude
-0.00011°
Longitude
164.31532°
Altitude
851.937 km
Speed
7.417 km/s
True Right ascension
12h 55m 33s
True Declination
0° 00' 00"
Sunlit
Object was in daylight at epoch
Visualization orbit readout
Latitude
Unknown
Longitude
Unknown
Altitude
Unknown
Speed
Unknown
Apparent Right ascension
Unknown
Apparent Declination
Unknown
Sunlit
N/A
Visualization observer readout
Local Sidereal Time
21:37:06
Azimuth
Unknown
Elevation
Unknown
Doppler factor
Unknown
Orbital elements
Apogee altitude
848.408 km
Perigee altitude
807.469 km
Semi-major axis
7,206.075 km
Eccentricity
0.00284
Inclination
98.6312°
RAAN
193.8895°
Arg. of periapsis
207.097°
True anomaly
153.02036°
Mean anomaly
152.8724°
Eccentric anomaly
152.94642°
Mean motion
3.54809 °/min
Orbital period
101.46 mins
BSTAR
0.00091123
Loading maneuver chart data...
Computing Atmospheric mass density...
Loading historical data...
Loading historical data...
Loading historical data...
Loading historical data...
Loading historical data...
Loading historical data...
Loading historical data...

Documentation

Showing up to 5 results
|